Simultaneous Nadir Overpasses (SNOs) Predictions

Prediction of SNOs between AURA and NPP Satellite Orbit:

Table of predicted SNOs for the next 14.0 days since TLE Epoch: 11/20/2020
Index Date (AURA) Time (AURA) Lat,Lon (AURA) SZA (AURA ) Date (NPP) Time (NPP) Lat,Lon (NPP) SZA (NPP ) Distance(km) Time Diff (sec)
1 11/22/2020 03:41:23 79.57, 21.89 111.56 11/22/2020 03:41:14 79.57, 21.85 111.57 0.93 9
2 11/22/2020 04:30:44 -79.80,-168.83 68.75 11/22/2020 04:31:52 -79.80,-168.81 68.80 0.53 68
3 11/24/2020 19:08:29 -79.43, -30.88 67.69 11/24/2020 19:07:27 -79.43, -30.84 67.65 0.96 62
4 11/24/2020 19:57:49 79.65, 138.32 112.02 11/24/2020 19:58:05 79.64, 138.25 112.02 1.40 16
5 11/27/2020 11:24:55 -79.50, 85.50 67.26 11/27/2020 11:24:18 -79.51, 85.55 67.24 1.13 37
6 11/27/2020 12:14:15 79.72,-105.29 112.45 11/27/2020 12:14:56 79.71,-105.34 112.43 1.21 41
7 11/30/2020 03:41:20 -79.61,-157.88 66.91 11/30/2020 03:41:08 -79.61,-157.79 66.92 1.92 12
8 11/30/2020 04:30:41 79.78, 11.07 112.85 11/30/2020 04:31:47 79.78, 11.05 112.81 0.48 66
9 12/02/2020 19:08:24 79.43, 149.14 113.77 12/02/2020 19:07:20 79.44, 149.22 113.80 1.91 64
